Home > Weather > Lubango > Past weeks

Flag for Angola Weather for the Past 2 Weeks in Lubango, Angola

Now
84 °F

Passing clouds.


Feels Like: 92 °F
Forecast: 57 / 75 °F
Wind: 6 mph from West

Location: Luanda Airport

Current Time: Feb 13, 2016 at 11:18:19 PM

Latest Report: Feb 13, 2016 at 10:00 PM


Visibility: N/A

Pressure: 29.83 "Hg (24.43 "Hg at 1765m altitude)

Humidity: 74%

Dew point: 75 °F

Location of LubangoLocation

Historic Weather in Lubango — Graph

°F

Lubango Temperature Yesterday

Maximum temperature yesterday: 88 °F (at 1:00 PM)
Minimum temperature yesterday: 77 °F (at 6:00 AM)
Average temperature yesterday: 83 °F

High & Low Weather Summary for the Past Weeks

 TemperatureHumidityPressure
High91 °F (Feb 4, 12:00 PM)100% (Feb 8, 6:40 AM)29.95 "Hg (Feb 8, 6:40 AM)
Low73 °F (Feb 8, 8:00 AM)42% (Feb 9, 11:00 PM)29.74 "Hg (Feb 4, 4:00 PM)
Average82 °F80%29.85 "Hg
* Reported Jan 29 9:00 PM — Feb 13 9:00 PM, Lubango, Weather by CustomWeather, © 2016

Note: Actual official high and low records may vary slightly from our data, if they occured in-between our weather recording intervals... More about our weather records

Advertising

Lubango Weather History for the Previous 24 Hours

 ConditionsComfort  
Time TempWeatherWind HumidityBarometerVisibility
9:00 PM
Sat, Feb 13
84 °FPassing clouds.5 mph79%29.83 "HgN/A
8:00 PM84 °FPassing clouds.7 mph74%29.80 "HgN/A
7:00 PM84 °FPassing clouds.7 mph74%29.77 "HgN/A
6:00 PM86 °FPassing clouds.9 mph75%29.74 "HgN/A
5:00 PM88 °FPassing clouds.12 mph66%29.74 "HgN/A
4:00 PM88 °FPassing clouds.9 mph66%29.74 "HgN/A
3:00 PM90 °FPassing clouds.9 mph63%29.77 "HgN/A
2:00 PM90 °FPassing clouds.9 mph59%29.77 "HgN/A
1:00 PM90 °FPassing clouds.6 mph67%29.80 "HgN/A
12:00 PM90 °FPassing clouds.6 mph63%29.83 "HgN/A
11:00 AM88 °FBroken clouds.2 mph70%29.86 "HgN/A
10:00 AM86 °FBroken clouds.6 mph70%29.86 "HgN/A
9:00 AM84 °FPartly sunny.5 mph74%29.86 "HgN/A
8:00 AM81 °FPartly sunny.6 mph84%29.86 "HgN/A
7:00 AM79 °FPartly sunny.5 mph89%29.83 "HgN/A
6:00 AM81 °FPassing clouds.3 mph84%29.83 "HgN/A
5:00 AM81 °FPassing clouds.2 mph84%29.83 "HgN/A
4:00 AM81 °FPassing clouds.2 mph84%29.83 "HgN/A
3:00 AM81 °FPassing clouds.No wind84%29.83 "HgN/A
2:00 AM81 °FPassing clouds.No wind84%29.83 "HgN/A
1:00 AM81 °FPassing clouds.2 mph84%29.86 "HgN/A
12:00 AM81 °FPassing clouds.2 mph84%29.86 "HgN/A
11:00 PM
Fri, Feb 12
81 °FPassing clouds.2 mph84%29.86 "HgN/A
Weather by CustomWeather, © 2016

See weather overviewHow to use our weather pages